Location: ???? ?????????
(44.3677°N, 135.2344°E)
Time: 14:55:06
(UTC+00:00)

ATLAS 3B R/B - Pass Details

Date: 19 May 2025
Orbit: 935 x 1258 km, 63.8° (Epoch: 20 June)

Event Time Altitude Azimuth Distance (km) Brightness Sun altitude
Exits shadow 12:34:18 20° 110° (ESE) 2,457 4.1 -18.1°
Maximum altitude 12:34:48 20° 105° (ESE) 2,457 4.2 -18.1°
Drops below altitude 10° 12:39:54 10° 63° (ENE) 3,179 5.1 -18.7°
Sets 12:43:35 0° 47° (NE) 4,184 5.9 -19.0°
